Moses Lake, WA
on Friday, January 18, 2013

Friday
Previous Day Next Day
Daily Summary
 ActualAverageRecord
Temperature
Mean Temperature °F 30°F  
Max Temperature 29°F 36°F 48°F (1999)
Min Temperature 26°F 24°F 6°F (1984)
Degree Days
Heating Degree Days 37 35  
Month to date heating degree days 678 649  
Since 1 July heating degree days 2886 3236  
Cooling Degree Days 0 0  
Month to date cooling degree days 0 0  
Year to date cooling degree days 0 0  
Moisture
Dew Point 24°F   
Average Humidity 84    
Maximum Humidity 92    
Minimum Humidity 75    
Precipitation
Precipitation T in 0.03 in 0.33 in (1986)
Month to date precipitation 0.27 0.81  
Year to date precipitation 0.27 0.81  
Wind
Wind Speed 2 mph   
Max Wind Speed 8 mph   
Max Gust Speed 15 mph   
Visibility 4 miles   
Events     

Key: T is trace of precipitation, MM is missing value
Source: NWS Daily Summary
Time(PST)TemperatureDew PointHumidity Pressure Visibility Wind DirectionWind SpeedGust SpeedPrecipitationEvents Conditions
12:00 AM 26.6°F 24.8°F 93% 30.39 in 3.0 miles SSE 3.5 mph - N/A   Overcast
12:24 AM 26.6°F 24.8°F 93% 30.39 in 2.5 miles Calm Calm - N/A   Overcast
12:40 AM 26.6°F 24.8°F 93% 30.38 in 3.0 miles SE 3.5 mph - N/A   Overcast
12:47 AM 26.6°F 24.8°F 93% 30.38 in 2.0 miles SE 3.5 mph - N/A   Overcast
12:52 AM 27.0°F 24.1°F 89% 30.43 in 2.0 miles SSE 3.5 mph - N/A   Overcast
1:18 AM 26.6°F 24.8°F 93% 30.37 in 3.0 miles SSE 3.5 mph - N/A   Overcast
1:52 AM 27.0°F 24.1°F 89% 30.42 in 4.0 miles SSE 4.6 mph - N/A   Overcast
2:07 AM 26.6°F 24.8°F 93% 30.37 in 2.5 miles SSE 5.8 mph - N/A   Overcast
2:15 AM 26.6°F 24.8°F 93% 30.37 in 4.0 miles SSE 4.6 mph - N/A   Overcast
2:42 AM 26.6°F 24.8°F 93% 30.37 in 4.0 miles SSE 5.8 mph - N/A   Overcast
2:52 AM 27.0°F 24.1°F 89% 30.41 in 4.0 miles SSE 6.9 mph - N/A   Overcast
3:52 AM 27.0°F 24.1°F 89% 30.39 in 5.0 miles South 4.6 mph - N/A   Overcast
4:52 AM 26.1°F 24.1°F 92% 30.39 in 4.0 miles SSE 3.5 mph - N/A   Overcast
5:05 AM 26.6°F 24.8°F 93% 30.34 in 2.5 miles Calm Calm - N/A   Overcast
5:25 AM 26.6°F 24.8°F 93% 30.33 in 3.0 miles SSE 5.8 mph - N/A   Overcast
5:48 AM 26.6°F 24.8°F 93% 30.33 in 4.0 miles SSE 4.6 mph - N/A   Overcast
5:52 AM 26.1°F 23.0°F 88% 30.38 in 4.0 miles SSE 4.6 mph - N/A   Overcast
6:07 AM 26.6°F 24.8°F 93% 30.33 in 3.0 miles Calm Calm - N/A   Overcast
6:52 AM 27.0°F 24.1°F 89% 30.38 in 4.0 miles Calm Calm - 0.00 in   Overcast
7:52 AM 27.0°F 23.0°F 85% 30.39 in 4.0 miles Calm Calm - N/A   Overcast
8:52 AM 27.0°F 23.0°F 85% 30.39 in 3.0 miles Calm Calm - N/A   Overcast
9:52 AM 27.0°F 23.0°F 85% 30.39 in 3.0 miles Calm Calm - N/A   Overcast
10:52 AM 28.0°F 23.0°F 81% 30.38 in 4.0 miles SW 4.6 mph - N/A   Haze
11:52 AM 28.0°F 23.0°F 81% 30.37 in 3.0 miles Calm Calm - N/A   Haze
12:52 PM 28.9°F 23.0°F 78% 30.36 in 4.0 miles NNE 5.8 mph - N/A   Haze
1:52 PM 28.0°F 23.0°F 81% 30.34 in 3.0 miles Calm Calm - N/A   Haze
2:52 PM 28.0°F 23.0°F 81% 30.34 in 4.0 miles Calm Calm - N/A   Haze
3:52 PM 28.0°F 21.9°F 78% 30.35 in 4.0 miles Calm Calm - N/A   Haze
4:52 PM 28.0°F 23.0°F 81% 30.35 in 6.0 miles Calm Calm - N/A   Haze
5:52 PM 28.0°F 23.0°F 81% 30.36 in 6.0 miles Calm Calm - N/A   Haze
6:52 PM 28.0°F 23.0°F 81% 30.37 in 6.0 miles ENE 3.5 mph - N/A   Haze
7:52 PM 28.0°F 21.9°F 78% 30.38 in 7.0 miles North 3.5 mph - N/A   Overcast
8:52 PM 28.0°F 21.9°F 78% 30.38 in 7.0 miles NNE 4.6 mph - N/A   Overcast
9:52 PM 28.0°F 23.0°F 81% 30.40 in 7.0 miles ENE 3.5 mph - N/A   Overcast
10:52 PM 28.0°F 21.9°F 78% 30.40 in 7.0 miles Calm Calm - N/A   Overcast
11:47 PM 28.4°F 21.2°F 74% 30.36 in 8.0 miles Calm Calm - N/A   Overcast
11:52 PM 28.0°F 21.0°F 75% 30.41 in 8.0 miles NNE 4.6 mph - N/A   Overcast
Moon Phase
Jan. 18 Jan. 18 Jan. 26 Feb. 03 Feb. 10
Sunrise:07:36 AM (PST) Moon Rise:10:44 AM (PST)1/18
Sunset:04:39 PM (PST) Moon Set:12:06 AM (PST)1/18

Copyright © 2014 The Weather Underground, Inc.